Вернуться в каталог

STARLINK-37412

АктивенСвязьVLEO
NORAD 69248·PAYLOAD·🇺🇸 United States

Запущен May 29, 2026 с Cape Canaveral Space Force Station

Loading…

Ближайшие Пролёты (ближайшие 24 часа)

TLE

СвежийSource: CelesTrak SupGP

Эпоха: Sep 15, 2026, 04:17 UTC

1 69248C 26117L   26258.17895833 -.00017891  00000+0 -52858-3 0  2589
2 69248  53.1571 178.4800 0001364  85.1678 215.4138 15.34399979    14

Отслеживайте STARLINK-37412 в реальном времени с AllMySat

Download on the App Store